Home   Weather   Mudgee   Past weeks
Flag for Australia

Past Weather in Mudgee, New South Wales, Australia — Yesterday and Last 2 Weeks

Now
59 °F

Refreshingly cool.


Feels Like: 57 °F
Forecast: 74 / 49 °F
Wind: 8 mph from South

Location: Mudgee Aws

Current Time: Mar 26, 2019 at 11:36:02 pm

Latest Report: Mar 26, 2019 at 10:00 pm


Visibility: N/A

Pressure: 30.10 "Hg

Humidity: 56%

Dew Point: 43 °F

Location of MudgeeLocation

Past Weather in Mudgee — Graph

°F

Mudgee Temperature Yesterday

Maximum temperature yesterday: 71 °F (at 4:00 pm)
Minimum temperature yesterday: 64 °F (at 9:00 am)
Average temperature yesterday: 68 °F

High & Low Weather Summary for the Past Weeks

 TemperatureHumidityPressure
High89 °F (Mar 12, 3:00 pm)99% (Mar 17, 3:00 pm)30.10 "Hg (Mar 17, 3:00 pm)
Low52 °F (Mar 15, 4:00 am)19% (Mar 12, 3:00 pm)29.73 "Hg (Mar 12, 4:00 pm)
Average69 °F69%29.92 "Hg
* Reported Mar 11 10:00 pm — Mar 26 10:00 pm, Mudgee. Weather by CustomWeather, © 2019

Note: Actual official high and low records may vary slightly from our data, if they occured in-between our weather recording intervals... More about our weather records

Advertising

Mudgee Weather History for the Previous 24 Hours

Scroll right to see more
 ConditionsComfort  
Time TempWeatherWind HumidityBarometerVisibility
10:00 pm
Tue, Mar 26
59 °FRefreshingly cool.8 mph56%30.10 "HgN/A
9:00 pm59 °FCool.6 mph60%30.09 "HgN/A
7:00 pm65 °FMild.7 mph46%30.04 "HgN/A
6:00 pm69 °FMild.10 mph36%30.03 "HgN/A
4:00 pm70 °FMild.14 mph34%30.01 "HgN/A
3:00 pm69 °FMild.13 mph37%30.01 "HgN/A
1:00 pm66 °FMild.13 mph46%30.03 "HgN/A
12:00 pm65 °FMild.17 mph47%30.04 "HgN/A
10:00 am60 °FCool.9 mph73%30.04 "HgN/A
9:00 am58 °FCool.7 mph87%30.03 "HgN/A
7:00 am56 °FCool.8 mph96%30.00 "HgN/A
6:00 am58 °FCool.8 mph92%29.98 "HgN/A
4:00 am60 °FCool.7 mph98%29.96 "HgN/A
3:00 am60 °FOvercast.7 mph99%29.96 "HgN/A
1:00 am61 °FCool.6 mph98%29.96 "HgN/A
12:00 am64 °FOvercast.8 mph88%29.95 "HgN/A
Weather by CustomWeather, © 2019

See weather overview